Probability
0 0 0 0 0 0 0 0 0 0 0 0 0 0 0 0 0 0 0 0 0 0 0 0 0 0 0 0 0 0 0 0 0 0 0 0 0 0 0 0 0 0 0 0
0 0 0 0 0 0 0 0 0 0 0 0 0 0 0 0 0 0 0 0 0 0 0 0 0 0 0 0 0 0 0 0 0 0 0 0 0 0 0 0 0 0 0 0
0 0 0 0 0 0 0 0 0 0 0 0 0 0 0 0 0 0 0 0 0 0 0 0 0 0 0 0 0 0 0 0 0 0 0 0 0 0 0 0 0 0 0 0
0 0 0 0 0 0 0 0 0 0 0 0 0 0 0 0 0 0 0 0 0 0 0 0 0 0 0 0 0 0 0 0 0 0 0 0 0 0 0 0 0 0 0 0
0 0 0 0 0 0 0 0 0 0 0 0 0 0 0 0 0 0 0 0 0 0 0 0 0 0 0 0 0 0 0 0 0 0 0 0 0 0 0 0 0 0 0 0
0 0 0 0 0 0 0 0 0 0 0 0 0 0 0 0 0 0 0 0 0 0 0 0 0 0 0 0 0 0 0 0 0 0 0 0 0 0 0 0 0 0 0 0
0 0 0 0 0 0 0 0 0 0 0 0 0 0 0 0 0 0 0 0 0 0 0 0 0 0 0 0 0 0 0 0 0 0 0 0 0 0 0 0 0 0 0 0
0 0 0 0 0 0 0 0 0 0 0 0 0 0 0 0 0 0 0 0 0 0 0 0 0 0 0 0 0 0 0 0 0 0 0 0 0 0 0 0 0 0 0 0
0 0 0 0 0 0 0 0 0 0 0 0 0 0 0 0 0 0 0 0 0 0 0 0 0 0 0 0 0 0 0 0 0 0 0 0 0 0 0 0 0 0 0 0
0 0 0 0 0 0 0 0 0 0 0 0 0 0 0 0 0 0 0 0 0 0 0 0 0 0 0 0 0 0 0 0 0 0 0 0 0 0 0 0 0 0 0 0
0 0 0 0 0 0 0 0 0 0 0 0 0 0 0 0 0 0 0 0 0 0 0 0 0 0 0 0 0 0 0 0 0 0 0 0 0 0 0 0 0 0 0 0
0 0 0 0 0 0 0 0 0 0 0 0 0 0 0 0 0 0 0 0 0 0 0 0 0 0 0 0 0 0 0 0 0 0 0 0 0 0 0 0 0 0 0 0
0 0 0 0 0 0 0 0 0 0 0 0 0 0 0 0 0 0 0 0 0 0 0 0 0 0 0 0 0 0 0 0 0 0 0 0 0 0 0 0 0 0 0 0
0 0 0 0 0 0 0 0 0 0 0 0 0 0 0 0 0 0 0 0 0 0 0 0 0 0 0 0 0 0 0 0 0 0 0 0 0 0 0 0 0 0 0 0
0 0 0 0 0 0 0 0 0 0 0 0 0 0 0 0 0 0 0 0 0 0 0 0 0 0 0 0 0 0 0 0 0 0 0 0 0 0 0 0 0 0 0 0
0 0 0 0 0 0 0 0 0 0 0 0 0 0 0 0 0 0 0 0 0 0 0 0 0 0 0 0 0 0 0 0 0 0 0 0 0 0 0 0 0 0 0 0
0 0 0 0 0 0 0 0 0 0 0 0 0 0 0 0 0 0 0 0 0 0 0 0 0 0 0 0 0 0 0 0 0 0 0 0 0 0 0 0 0 0 0 0
0 0 0 0 0 0 0 0 0 0 0 0 0 0 0 0 0 0 0 0 0 0 0 0 0 0 0 0 0 0 0 0 0 0 0 0 0 0 0 0 0 0 0 0
0 0 0 0 0 0 0 0 0 0 0 0 0 0 0 0 0 0 0 0 0 0 0 0 0 0 0 0 0 0 0 0 0 0 0 0 0 0 0 0 0 0 0 0
0 0 0 0 0 0 0 0 0 0 0 0 0 0 0 0 0 0 0 0 0 0 0 0 0 0 0 0 0 0 0 0 0 0 0 0 0 0 0 0 0 0 0 0
0 0 0 0 0 0 0 0 0 0 0 0 0 0 0 0 0 0 0 0 0 0 0 0 0 0 0 0 0 0 0 0 0 0 0 0 0 0 0 0 0 0 0 0
0 0 0 0 0 0 0 0 0 0 0 0 0 0 0 0 0 0 0 0 0 0 0 0 0 0 0 0 0 0 0 0 0 0 0 0 0 0 0 0 0 0 0 0
0 0 0 0 0 0 0 0 0 0 0 0 0 0 0 0 0 0 0 0 0 0 0 0 0 0 0 0 0 0 0 0 0 0 0 0 0 0 0 0 0 0 0 0
0 0 0 0 0 0 0 0 0 0 0 0 0 0 0 0 0 0 0 0 0 0 0 0 0 0 0 0 0 0 0 0 0 0 0 0 0 0 0 0 0 0 0 0
0 0 0 0 0 0 0 0 0 0 0 0 0 0 0 0 0 0 0 0 0 0 0 0 0 0 0 0 0 0 0 0 0 0 0 0 0 0 0 0 0 0 0 0
0 0 0 0 0 0 0 0 0 0 0 0 0 0 0 0 0 0 0 0 0 0 0 0 0 0 0 0 0 0 0 0 0 0 0 0 0 0 0 0 0 0 0 0
0 0 0 0 0 0 0 0 0 0 0 0 0 0 0 0 0 0 0 0 0 0 0 0 0 0 0 0 0 0 0 0 0 0 0 0 0 0 0 0 0 0 0 0
Wind_Speed
10 10 8 11 12 12 15 14 12 13 14 15 11 9 8 6 5 5 4 4 4 4 3 3 3 3 3 3 3 3 3 3 3 3 3 4 4 4 4 4 4 4 3 3
7 7 8 11 13 15 16 17 18 18 19 14 10 8 8 7 5 6 6 5 5 5 4 3 3 3 3 3 3 3 3 3 3 3 3 3 3 3 3 3 3 3 3 3
6 4 6 11 11 12 11 12 12 15 13 8 8 7 7 6 5 6 6 6 5 5 5 4 3 3 3 3 3 3 3 3 3 3 3 3 3 3 3 3 3 3 3 3
4 4 8 3 1 6 10 11 12 12 10 8 9 7 7 6 5 6 6 6 5 5 4 4 3 3 3 2 3 3 3 3 3 3 3 3 3 3 3 3 3 2 2 3
3 5 9 6 3 4 6 9 9 12 11 9 6 7 7 5 5 7 6 6 5 4 4 3 3 2 2 2 2 3 3 3 3 3 4 3 3 3 3 2 2 2 2 2
5 6 8 3 2 2 3 7 4 7 8 7 4 5 5 3 4 4 4 3 3 3 3 3 3 2 2 3 3 4 4 4 4 4 4 3 3 3 2 2 2 2 2 2
9 8 9 4 2 5 5 5 2 5 6 5 6 6 5 3 4 3 3 3 2 2 3 3 2 2 3 3 4 4 4 4 3 3 3 3 3 2 2 2 2 1 2 2
7 9 10 4 6 7 5 4 4 5 5 6 6 6 5 4 4 3 3 3 2 2 3 2 2 3 4 4 4 3 3 3 3 3 3 2 2 2 2 2 2 1 1 1
9 9 2 6 7 6 4 6 6 6 6 5 5 6 5 5 4 4 4 3 3 3 3 2 3 3 4 4 3 3 3 3 3 3 2 2 2 2 2 2 2 2 1 1
8 10 8 8 8 7 7 8 8 7 6 5 6 6 6 5 4 4 3 3 3 3 3 3 3 3 4 3 3 3 3 3 2 2 2 2 2 2 2 2 2 2 2 2
10 9 8 9 9 9 7 6 6 6 5 6 6 6 6 5 5 4 3 3 3 3 4 4 3 3 3 3 2 3 3 2 2 2 2 1 2 2 2 3 2 2 2 2
9 7 7 7 5 6 6 6 6 6 6 6 6 6 6 5 5 4 4 3 3 4 4 4 3 3 3 3 3 3 2 2 2 1 1 1 1 1 2 3 3 3 3 3
9 6 7 8 6 5 6 6 6 6 6 6 5 5 5 5 4 4 3 4 4 4 4 4 3 3 3 3 3 3 3 2 1 1 1 1 1 1 1 1 2 3 3 3
9 6 8 7 7 5 6 6 5 5 4 4 4 4 3 4 3 4 4 4 4 3 3 3 3 3 2 2 2 3 3 2 2 2 2 2 1 2 2 2 2 1 2 3
9 9 9 6 6 5 4 4 3 4 4 4 3 3 3 4 4 4 4 3 2 2 3 3 3 3 2 2 2 2 2 2 2 2 2 2 1 2 2 2 2 2 1 1
6 6 7 7 7 6 4 4 4 5 4 4 4 4 4 4 4 4 3 2 2 3 3 3 3 3 2 2 2 2 2 2 2 1 1 1 1 2 2 2 2 2 2 1
6 6 6 6 6 6 5 5 5 5 4 4 5 4 3 3 3 3 3 3 3 4 4 4 3 2 2 2 2 2 1 1 2 1 1 1 1 1 1 1 2 2 2 2
9 8 7 6 6 6 5 5 4 4 4 4 4 3 3 3 4 4 3 2 2 2 3 3 2 2 2 2 2 1 1 1 1 1 1 1 1 1 1 1 2 2 1 1
6 6 6 6 6 5 5 5 4 4 4 3 3 4 4 4 4 3 2 2 2 3 3 2 2 2 2 2 2 1 1 1 1 1 1 1 1 1 1 1 1 1 1 1
4 4 4 4 4 4 4 4 4 3 3 3 3 3 3 3 3 3 2 3 3 3 2 1 2 2 2 2 2 2 2 2 2 1 1 1 1 1 1 1 1 1 1 1
4 4 4 3 3 3 3 4 3 3 3 3 3 4 4 3 2 2 2 3 3 1 2 2 2 2 2 2 2 2 2 2 2 2 2 2 1 1 1 1 1 1 1 1
3 3 3 3 2 2 2 3 3 3 3 2 3 3 3 3 2 3 3 3 2 1 1 1 1 2 2 3 2 2 2 2 2 2 2 2 2 2 2 1 1 1 1 1
3 3 3 3 3 2 2 2 3 3 3 3 3 3 3 3 2 2 3 2 1 2 2 1 2 3 3 2 2 2 2 2 2 2 2 2 2 2 2 2 1 1 1 1
3 3 2 2 2 2 2 3 2 2 2 2 2 3 3 2 2 2 2 2 2 2 2 2 2 3 3 2 2 2 2 2 2 2 2 2 2 2 1 1 1 1 1 2
3 3 3 3 3 3 3 2 2 2 2 2 2 2 2 2 2 2 2 2 2 2 2 2 3 3 2 2 2 2 2 2 2 2 2 2 2 2 2 2 2 2 2 2
3 3 3 3 3 2 2 2 2 2 2 2 2 1 1 1 1 1 1 1 1 2 1 1 2 2 2 2 2 2 2 2 2 2 2 2 2 2 2 2 2 2 2 2
2 2 2 2 2 2 2 2 3 3 2 2 2 1 1 1 1 1 1 1 1 1 1 1 1 1 1 1 1 1 1 1 1 1 2 2 2 2 2 2 2 2 1 1
Wind_Direction
265 274 262 255 247 231 227 236 248 262 268 276 281 282 283 279 275 276 283 285 287 285 278 269 275 291 295 291 285 275 265 268 271 278 282 281 277 274 272 269 267 262 254 248
265 260 262 263 254 239 239 241 247 263 272 277 283 281 276 273 270 272 281 282 284 282 276 265 264 279 291 294 286 278 274 275 278 274 278 278 277 276 272 270 269 263 254 248
264 290 282 261 240 221 224 226 231 247 261 278 278 273 274 273 262 265 276 282 279 276 270 266 264 268 274 279 280 273 274 281 282 268 262 266 267 264 266 266 264 262 257 252
276 287 249 253 139 216 232 243 234 248 264 268 268 281 280 270 261 269 275 276 273 273 272 272 271 272 275 279 277 273 275 279 277 265 256 256 254 258 265 267 265 264 265 264
240 260 273 274 220 204 228 260 234 241 259 269 284 291 278 258 259 265 265 269 271 267 264 264 262 260 260 269 273 272 275 274 270 260 253 249 247 251 258 259 262 268 267 268
223 245 254 266 130 169 204 263 230 231 251 262 259 271 289 296 280 275 277 276 274 266 258 255 257 245 249 259 263 269 276 277 274 264 252 245 244 246 253 253 258 264 265 272
227 242 263 270 158 167 220 281 309 236 241 235 236 260 299 300 287 284 283 280 271 257 250 253 245 238 251 259 264 274 280 281 281 271 256 244 239 241 241 240 242 252 269 284
207 226 249 166 157 204 257 317 283 263 250 245 256 273 277 278 279 283 283 279 272 259 261 259 238 233 250 261 272 279 277 276 277 273 257 240 225 225 227 224 227 238 265 287
208 227 273 178 213 247 280 274 273 265 264 253 261 267 265 265 268 268 270 270 267 261 265 266 248 241 251 268 277 276 270 268 272 271 248 225 217 214 211 213 223 236 241 258
248 256 259 251 254 264 268 270 275 273 263 253 261 262 257 258 265 268 267 263 262 258 259 261 257 253 257 266 270 262 266 269 268 265 253 216 215 213 213 212 217 226 239 249
248 266 277 256 250 259 268 275 276 275 264 255 256 258 252 254 259 261 263 261 253 251 258 261 261 261 266 268 261 258 258 261 261 258 259 230 217 223 226 227 236 236 241 242
238 240 242 266 268 258 256 263 270 273 274 264 253 255 253 255 257 256 254 251 252 256 261 263 260 266 271 264 251 247 246 249 252 254 253 246 237 244 238 247 250 249 254 261
252 265 260 276 279 262 255 267 272 264 262 268 263 252 248 254 253 251 252 253 250 253 257 257 256 265 269 260 244 241 249 251 247 247 249 248 235 240 266 254 232 235 246 257
247 256 266 267 269 272 267 270 273 273 271 267 262 257 249 248 247 248 251 254 253 252 253 250 250 259 263 250 237 240 247 245 240 237 241 242 239 239 242 248 255 261 252 258
244 239 248 268 274 272 266 263 268 276 282 282 269 255 244 241 246 253 258 255 243 246 254 249 247 257 256 238 230 236 241 243 238 238 236 237 236 236 235 240 248 259 266 250
247 244 241 244 254 262 259 252 257 267 272 273 270 262 253 251 256 261 259 238 226 241 249 250 253 255 233 219 222 233 239 247 255 242 234 233 227 229 224 230 242 245 247 255
231 237 232 237 245 255 257 253 250 257 262 261 263 262 254 248 254 258 258 245 240 250 254 252 257 253 224 215 218 229 235 230 237 243 238 237 234 227 223 221 233 249 254 261
237 242 237 234 236 245 257 259 256 257 259 261 260 243 232 234 247 258 267 266 262 268 268 261 254 239 225 219 214 222 228 234 230 234 235 233 243 238 235 232 235 249 266 260
234 234 233 233 234 235 245 252 254 254 258 251 240 238 242 249 254 260 264 258 260 271 276 256 223 212 218 218 202 211 211 209 215 229 235 230 239 244 245 250 256 249 253 261
228 226 227 235 238 233 237 245 247 248 247 236 235 241 250 257 254 246 240 251 260 270 272 243 216 219 223 211 197 208 206 207 210 216 222 225 233 243 247 252 259 268 272 274
221 220 219 226 241 246 246 245 240 243 245 225 223 236 249 261 257 243 241 262 278 274 236 223 220 221 213 195 194 207 207 208 210 211 212 218 224 234 238 243 252 262 271 276
215 212 215 218 226 253 265 254 240 236 235 231 233 238 244 254 254 250 250 262 277 247 227 222 222 213 199 200 202 204 209 210 211 211 212 215 219 226 233 240 246 256 263 266
215 212 210 209 218 240 263 257 242 233 231 230 230 232 237 243 240 241 263 266 263 232 230 230 219 203 204 206 200 202 207 211 211 212 213 214 221 227 232 240 250 255 259 264
204 202 204 205 198 215 244 261 257 246 239 243 242 238 234 239 248 246 262 256 250 234 234 231 211 205 205 205 202 207 209 211 214 213 210 212 216 222 231 242 255 265 266 269
202 201 197 196 210 229 239 247 253 250 241 247 258 254 243 240 245 258 267 261 245 237 243 230 216 208 203 200 203 211 211 210 206 204 209 214 219 224 231 237 247 258 264 265
211 215 219 224 229 231 229 227 234 241 238 246 259 262 259 249 241 251 251 251 238 229 240 230 211 206 204 197 198 202 204 207 212 212 212 214 220 226 234 241 249 254 260 266
214 219 219 229 234 226 222 224 228 235 234 235 252 260 254 242 226 223 226 231 228 222 221 214 204 202 200 192 185 184 192 199 208 214 212 215 220 226 231 236 244 249 254 257